Location: Colorado Springs
(38.8340°N, 104.8210°W)
Time: 03:30:14
(UTC-07:00)

Hubble Space Telescope - Pass Details

Date: 09 October 2017
Orbit: 538 x 541 km, 28.5° (Epoch: 11 December)

Event Time Altitude Azimuth Distance (km) Brightness Sun altitude
Exits shadow 04:53:33 14° 155° (SSE) 1,574 3.2 -25.9°
Drops below altitude 10° 04:54:27 10° 144° (SE) 1,786 3.7 -25.7°
Sets 04:57:17 0° 125° (SE) 2,677 4.9 -25.2°
